Thermal, CA

11:37 PM PDT on March 24, 2017 (GMT -0700)
Desert Resorts Regional

Weather History for KTRM - February, 2013

Change the Weather History Date:

Saturday, February 9, 2013

  Actual Average Record
Temperature  
Mean Temperature 49 °F 57 °F  
Max Temperature 64 °F 74 °F 91 °F (1951)
Min Temperature 33 °F 40 °F 29 °F (2004)
Degree Days  
Heating Degree Days 16 8  
Month to date heating degree days 54 79  
Since 1 July heating degree days 881 939  
Cooling Degree Days 0 0  
Month to date cooling degree days 0 0  
Year to date cooling degree days 0 2  
Moisture  
Dew Point 30 °F    
Average Humidity 54    
Maximum Humidity 82    
Minimum Humidity 25    
Precipitation  
Precipitation 0.00 in 0.02 in 0.52 in (1976)
Month to date precipitation T 0.18  
Year to date precipitation 0.37 0.85  
Since 1 July precipitation 2.55  
Snow  
Snow 0.00 in - - ()
Month to date snowfall 0.0  
Year to date snowfall 0.0  
Snow Depth 0.00 in    
Sea Level Pressure  
Sea Level Pressure 29.95 in    
Wind  
Wind Speed 4 mph (NW)    
Max Wind Speed 12 mph    
Max Gust Speed 15 mph    
Visibility 10 miles    
Events      
T = Trace of Precipitation, MM = Missing Value Source: NWS Daily Summary

Daily Weather History Graph

Daily Weather History Graph

Search for Another Location

Airport or City:

Trip Planner

Search our weather history database for the weather conditions in past years. The results will help you decide how hot, cold, wet, or windy it might be!

Date:

Astronomy

Feb. 09, 2013 Rise Set
Actual Time 6:34 AM PST 5:23 PM PST
Civil Twilight 6:08 AM PST 5:49 PM PST
Nautical Twilight 5:39 AM PST 6:19 PM PST
Astronomical Twilight 5:10 AM PST 6:48 PM PST
Moon 5:49 AM PST (2/9) 5:09 PM PST (2/9)
Length of Visible Light 11h 41m
Length of Day
10h 49m
Waning Crescent, 0% of the Moon is Illuminated
Feb 9
Waning Crescent
Feb 9
New
Feb 17
First Quarter
Feb 25
Full
Mar 4
Last Quarter

Hourly Weather History & Observations

Time (PST) Temp. Windchill Dew Point Humidity Pressure Visibility Wind Dir Wind Speed Gust Speed Precip Events Conditions
12:52 AM 39.0 °F - 30.9 °F 73% 29.86 in 10.0 mi Calm Calm - N/A   Clear
1:52 AM 37.0 °F 34.5 °F 30.0 °F 76% 29.86 in 10.0 mi Variable 3.5 mph - N/A   Clear
2:52 AM 37.9 °F - 30.9 °F 76% 29.86 in 10.0 mi Calm Calm - N/A   Clear
3:52 AM 36.0 °F 33.3 °F 30.9 °F 82% 29.87 in 10.0 mi NW 3.5 mph - N/A   Clear
4:52 AM 39.9 °F 35.8 °F 30.9 °F 70% 29.88 in 10.0 mi West 5.8 mph - N/A   Clear
5:52 AM 41.0 °F 39.0 °F 30.9 °F 67% 29.89 in 10.0 mi West 3.5 mph - N/A   Clear
6:52 AM 33.1 °F - 28.9 °F 85% 29.91 in 10.0 mi Calm Calm - N/A   Clear
7:52 AM 43.0 °F - 33.1 °F 68% 29.94 in 10.0 mi Calm Calm - N/A   Clear
8:52 AM 52.0 °F - 34.0 °F 50% 29.95 in 10.0 mi West 5.8 mph - N/A   Clear
9:52 AM 55.0 °F - 30.9 °F 40% 29.97 in 10.0 mi Variable 6.9 mph - N/A   Clear
10:52 AM 57.9 °F - 28.9 °F 33% 29.98 in 10.0 mi Variable 5.8 mph - N/A   Clear
11:52 AM 59.0 °F - 28.9 °F 32% 29.98 in 10.0 mi Calm Calm - N/A   Clear
12:52 PM 61.0 °F - 28.0 °F 29% 29.96 in 10.0 mi Variable 6.9 mph - N/A   Clear
1:52 PM 63.0 °F - 28.0 °F 27% 29.95 in 10.0 mi North 10.4 mph - N/A   Clear
2:52 PM 62.1 °F - 27.0 °F 26% 29.94 in 10.0 mi NW 4.6 mph - N/A   Clear
3:52 PM 62.1 °F - 28.0 °F 28% 29.94 in 10.0 mi NNW 5.8 mph - N/A   Clear
4:52 PM 60.1 °F - 28.0 °F 30% 29.95 in 10.0 mi NNW 11.5 mph - N/A   Clear
5:52 PM 55.9 °F - 30.0 °F 37% 29.96 in 10.0 mi NW 6.9 mph - N/A   Clear
6:52 PM 54.0 °F - 30.9 °F 41% 29.97 in 10.0 mi NNW 9.2 mph - N/A   Clear
7:52 PM 53.1 °F - 30.9 °F 43% 29.99 in 10.0 mi NW 9.2 mph - N/A   Clear
8:52 PM 51.1 °F - 32.0 °F 48% 30.01 in 10.0 mi NW 5.8 mph - N/A   Clear
9:52 PM 50.0 °F - 32.0 °F 50% 30.02 in 10.0 mi NNW 9.2 mph - N/A   Clear
10:52 PM 50.0 °F - 34.0 °F 54% 30.02 in 10.0 mi NNW 5.8 mph - N/A   Clear
11:52 PM 50.0 °F - 34.0 °F 54% 30.03 in 10.0 mi NW 5.8 mph - N/A   Clear